Year,Month,Day,Hour,Minute,Value (Times are PST for temperature in C)
2015,07,01,00,00,18.70
2015,07,01,00,01,18.60
2015,07,01,00,02,18.60
2015,07,01,00,03,18.60
2015,07,01,00,04,18.60
2015,07,01,00,05,18.50
2015,07,01,00,06,18.50
2015,07,01,00,07,18.40
2015,07,01,00,08,18.40
2015,07,01,00,09,18.40
2015,07,01,00,10,18.40
2015,07,01,00,11,18.30
2015,07,01,00,12,18.30
2015,07,01,00,13,18.30
2015,07,01,00,14,18.20
2015,07,01,00,15,18.10
2015,07,01,00,16,18.10
2015,07,01,00,17,18.00
2015,07,01,00,18,17.90
2015,07,01,00,19,17.90
2015,07,01,00,20,17.80
2015,07,01,00,21,17.80
2015,07,01,00,22,17.80
2015,07,01,00,23,17.70
2015,07,01,00,24,17.70
2015,07,01,00,25,17.60
2015,07,01,00,26,17.60
2015,07,01,00,27,17.50
2015,07,01,00,28,17.50
2015,07,01,00,29,17.40
2015,07,01,00,30,17.40
2015,07,01,00,31,17.40
2015,07,01,00,32,17.30
2015,07,01,00,33,17.30
2015,07,01,00,34,17.20
2015,07,01,00,35,17.20
2015,07,01,00,36,17.20
2015,07,01,00,37,17.20
2015,07,01,00,38,17.10
2015,07,01,00,39,17.10
2015,07,01,00,40,17.10
2015,07,01,00,41,17.10
2015,07,01,00,42,17.00
2015,07,01,00,43,17.00
2015,07,01,00,44,17.00
2015,07,01,00,45,17.00
2015,07,01,00,46,17.00
2015,07,01,00,47,17.00
2015,07,01,00,48,17.00
2015,07,01,00,49,16.90
2015,07,01,00,50,16.90
2015,07,01,00,51,16.90
2015,07,01,00,52,16.90
2015,07,01,00,53,16.90
2015,07,01,00,54,16.90
2015,07,01,00,55,16.90
2015,07,01,00,56,16.90
2015,07,01,00,57,16.90
2015,07,01,00,58,16.90
2015,07,01,00,59,16.90
2015,07,01,01,00,16.90
2015,07,01,01,01,16.90
2015,07,01,01,02,17.00
2015,07,01,01,03,17.00
2015,07,01,01,04,17.10
2015,07,01,01,05,17.10
2015,07,01,01,06,17.10
2015,07,01,01,07,17.20
2015,07,01,01,08,17.30
2015,07,01,01,09,17.30
2015,07,01,01,10,17.30
2015,07,01,01,11,17.40
2015,07,01,01,12,17.40
2015,07,01,01,13,17.40
2015,07,01,01,14,17.40
2015,07,01,01,15,17.50
2015,07,01,01,16,17.50
2015,07,01,01,17,17.50
2015,07,01,01,18,17.50
2015,07,01,01,19,17.40
2015,07,01,01,20,17.40
2015,07,01,01,21,17.40
2015,07,01,01,22,17.40
2015,07,01,01,23,17.40
2015,07,01,01,24,17.40
2015,07,01,01,25,17.30
2015,07,01,01,26,17.30
2015,07,01,01,27,17.30
2015,07,01,01,28,17.30
2015,07,01,01,29,17.40
2015,07,01,01,30,17.40
2015,07,01,01,31,17.40
2015,07,01,01,32,17.40
2015,07,01,01,33,17.40
2015,07,01,01,34,17.30
2015,07,01,01,35,17.30
2015,07,01,01,36,17.20
2015,07,01,01,37,17.20
2015,07,01,01,38,17.10
2015,07,01,01,39,17.00
2015,07,01,01,40,16.90
2015,07,01,01,41,16.90
2015,07,01,01,42,16.80
2015,07,01,01,43,16.80
2015,07,01,01,44,16.80
2015,07,01,01,45,16.70
2015,07,01,01,46,16.70
2015,07,01,01,47,16.70
2015,07,01,01,48,16.60
2015,07,01,01,49,16.60
2015,07,01,01,50,16.60
2015,07,01,01,51,16.50
2015,07,01,01,52,16.50
2015,07,01,01,53,16.50
2015,07,01,01,54,16.40
2015,07,01,01,55,16.40
2015,07,01,01,56,16.40
2015,07,01,01,57,16.30
2015,07,01,01,58,16.30
2015,07,01,01,59,16.30
2015,07,01,02,00,16.30
2015,07,01,02,01,16.30
2015,07,01,02,02,16.30
2015,07,01,02,03,16.30
2015,07,01,02,04,16.30
2015,07,01,02,05,16.30
2015,07,01,02,06,16.30
2015,07,01,02,07,16.40
2015,07,01,02,08,16.40
2015,07,01,02,09,16.40
2015,07,01,02,10,16.40
2015,07,01,02,11,16.40
2015,07,01,02,12,16.40
2015,07,01,02,13,16.40
2015,07,01,02,14,16.30
2015,07,01,02,15,16.30
2015,07,01,02,16,16.30
2015,07,01,02,17,16.30
2015,07,01,02,18,16.30
2015,07,01,02,19,16.20
2015,07,01,02,20,16.20
2015,07,01,02,21,16.20
2015,07,01,02,22,16.20
2015,07,01,02,23,16.10
2015,07,01,02,24,16.10
2015,07,01,02,25,16.10
2015,07,01,02,26,16.00
2015,07,01,02,27,16.00
2015,07,01,02,28,15.90
2015,07,01,02,29,15.90
2015,07,01,02,30,15.90
2015,07,01,02,31,15.90
2015,07,01,02,32,15.90
2015,07,01,02,33,15.90
2015,07,01,02,34,15.90
2015,07,01,02,35,15.90
2015,07,01,02,36,15.90
2015,07,01,02,37,15.90
2015,07,01,02,38,15.80
2015,07,01,02,39,15.80
2015,07,01,02,40,15.80
2015,07,01,02,41,15.80
2015,07,01,02,42,15.70
2015,07,01,02,43,15.70
2015,07,01,02,44,15.70
2015,07,01,02,45,15.60
2015,07,01,02,46,15.60
2015,07,01,02,47,15.60
2015,07,01,02,48,15.50
2015,07,01,02,49,15.50
2015,07,01,02,50,15.50
2015,07,01,02,51,15.50
2015,07,01,02,52,15.50
2015,07,01,02,53,15.40
2015,07,01,02,54,15.40
2015,07,01,02,55,15.40
2015,07,01,02,56,15.40
2015,07,01,02,57,15.40
2015,07,01,02,58,15.40
2015,07,01,02,59,15.40
2015,07,01,03,00,15.30
2015,07,01,03,01,15.30
2015,07,01,03,02,15.30
2015,07,01,03,03,15.30
2015,07,01,03,04,15.30
2015,07,01,03,05,15.30
2015,07,01,03,06,15.30
2015,07,01,03,07,15.30
2015,07,01,03,08,15.30
2015,07,01,03,09,15.30
2015,07,01,03,10,15.20
2015,07,01,03,11,15.20
2015,07,01,03,12,15.20
2015,07,01,03,13,15.20
2015,07,01,03,14,15.20
2015,07,01,03,15,15.20
2015,07,01,03,16,15.20
2015,07,01,03,17,15.20
2015,07,01,03,18,15.30
2015,07,01,03,19,15.30
2015,07,01,03,20,15.30
2015,07,01,03,21,15.30
2015,07,01,03,22,15.30
2015,07,01,03,23,15.30
2015,07,01,03,24,15.20
2015,07,01,03,25,15.20
2015,07,01,03,26,15.20
2015,07,01,03,27,15.20
2015,07,01,03,28,15.20
2015,07,01,03,29,15.30
2015,07,01,03,30,15.30
2015,07,01,03,31,15.40
2015,07,01,03,32,15.40
2015,07,01,03,33,15.40
2015,07,01,03,34,15.40
2015,07,01,03,35,15.50
2015,07,01,03,36,15.50
2015,07,01,03,37,15.60
2015,07,01,03,38,15.60
2015,07,01,03,39,15.60
2015,07,01,03,40,15.60
2015,07,01,03,41,15.60
2015,07,01,03,42,15.60
2015,07,01,03,43,15.60
2015,07,01,03,44,15.50
2015,07,01,03,45,15.50
2015,07,01,03,46,15.50
2015,07,01,03,47,15.50
2015,07,01,03,48,15.50
2015,07,01,03,49,15.50
2015,07,01,03,50,15.60
2015,07,01,03,51,15.60
2015,07,01,03,52,15.70
2015,07,01,03,53,15.70
2015,07,01,03,54,15.80
2015,07,01,03,55,15.80
2015,07,01,03,56,15.80
2015,07,01,03,57,15.80
2015,07,01,03,58,15.80
2015,07,01,03,59,15.80
2015,07,01,04,00,15.90
2015,07,01,04,01,15.90
2015,07,01,04,02,15.90
2015,07,01,04,03,16.00
2015,07,01,04,04,16.00
2015,07,01,04,05,16.00
2015,07,01,04,06,16.00
2015,07,01,04,07,16.00
2015,07,01,04,08,15.90
2015,07,01,04,09,15.90
2015,07,01,04,10,15.90
2015,07,01,04,11,15.90
2015,07,01,04,12,15.90
2015,07,01,04,13,15.90
2015,07,01,04,14,15.90
2015,07,01,04,15,15.90
2015,07,01,04,16,15.90
2015,07,01,04,17,15.90
2015,07,01,04,18,15.80
2015,07,01,04,19,15.80
2015,07,01,04,20,15.80
2015,07,01,04,21,15.80
2015,07,01,04,22,15.80
2015,07,01,04,23,15.70
2015,07,01,04,24,15.70
2015,07,01,04,25,15.60
2015,07,01,04,26,15.60
2015,07,01,04,27,15.60
2015,07,01,04,28,15.50
2015,07,01,04,29,15.50
2015,07,01,04,30,15.50
2015,07,01,04,31,15.50
2015,07,01,04,32,15.50
2015,07,01,04,33,15.50
2015,07,01,04,34,15.50
2015,07,01,04,35,15.50
2015,07,01,04,36,15.40
2015,07,01,04,37,15.40
2015,07,01,04,38,15.40
2015,07,01,04,39,15.40
2015,07,01,04,40,15.40
2015,07,01,04,41,15.40
2015,07,01,04,42,15.40
2015,07,01,04,43,15.40
2015,07,01,04,44,15.30
2015,07,01,04,45,15.30
2015,07,01,04,46,15.30
2015,07,01,04,47,15.30
2015,07,01,04,48,15.30
2015,07,01,04,49,15.30
2015,07,01,04,50,15.30
2015,07,01,04,51,15.30
2015,07,01,04,52,15.30
2015,07,01,04,53,15.30
2015,07,01,04,54,15.30
2015,07,01,04,55,15.30
2015,07,01,04,56,15.30
2015,07,01,04,57,15.30
2015,07,01,04,58,15.30
2015,07,01,04,59,15.30
2015,07,01,05,00,15.40
2015,07,01,05,01,15.40
2015,07,01,05,02,15.40
2015,07,01,05,03,15.40
2015,07,01,05,04,15.40
2015,07,01,05,05,15.40
2015,07,01,05,06,15.40
2015,07,01,05,07,15.50
2015,07,01,05,08,15.50
2015,07,01,05,09,15.50
2015,07,01,05,10,15.50
2015,07,01,05,11,15.40
2015,07,01,05,12,15.40
2015,07,01,05,13,15.40
2015,07,01,05,14,15.40
2015,07,01,05,15,15.40
2015,07,01,05,16,15.40
2015,07,01,05,17,15.40
2015,07,01,05,18,15.40
2015,07,01,05,19,15.40
2015,07,01,05,20,15.40
2015,07,01,05,21,15.40
2015,07,01,05,22,15.30
2015,07,01,05,23,15.40
2015,07,01,05,24,15.40
2015,07,01,05,25,15.40
2015,07,01,05,26,15.40
2015,07,01,05,27,15.40
2015,07,01,05,28,15.30
2015,07,01,05,29,15.30
2015,07,01,05,30,15.30
2015,07,01,05,31,15.20
2015,07,01,05,32,15.20
2015,07,01,05,33,15.20
2015,07,01,05,34,15.20
2015,07,01,05,35,15.10
2015,07,01,05,36,15.10
2015,07,01,05,37,15.00
2015,07,01,05,38,15.00
2015,07,01,05,39,15.00
2015,07,01,05,40,15.00
2015,07,01,05,41,15.00
2015,07,01,05,42,15.00
2015,07,01,05,43,15.00
2015,07,01,05,44,15.00
2015,07,01,05,45,15.00
2015,07,01,05,46,15.00
2015,07,01,05,47,15.00
2015,07,01,05,48,15.00
2015,07,01,05,49,15.00
2015,07,01,05,50,15.00
2015,07,01,05,51,15.00
2015,07,01,05,52,15.00
2015,07,01,05,53,15.10
2015,07,01,05,54,15.20
2015,07,01,05,55,15.20
2015,07,01,05,56,15.30
2015,07,01,05,57,15.30
2015,07,01,05,58,15.30
2015,07,01,05,59,15.30
2015,07,01,06,00,15.30
2015,07,01,06,01,15.30
2015,07,01,06,02,15.30
2015,07,01,06,03,15.30
2015,07,01,06,04,15.30
2015,07,01,06,05,15.40
2015,07,01,06,06,15.40
2015,07,01,06,07,15.40
2015,07,01,06,08,15.40
2015,07,01,06,09,15.40
2015,07,01,06,10,15.50
2015,07,01,06,11,15.50
2015,07,01,06,12,15.60
2015,07,01,06,13,15.60
2015,07,01,06,14,15.50
2015,07,01,06,15,15.50
2015,07,01,06,16,15.60
2015,07,01,06,17,15.60
2015,07,01,06,18,15.60
2015,07,01,06,19,15.70
2015,07,01,06,20,15.70
2015,07,01,06,21,15.70
2015,07,01,06,22,15.70
2015,07,01,06,23,15.70
2015,07,01,06,24,15.80
2015,07,01,06,25,15.80
2015,07,01,06,26,15.80
2015,07,01,06,27,15.80
2015,07,01,06,28,15.90
2015,07,01,06,29,15.90
2015,07,01,06,30,15.90
2015,07,01,06,31,16.00
2015,07,01,06,32,16.00
2015,07,01,06,33,16.00
2015,07,01,06,34,16.10
2015,07,01,06,35,16.10
2015,07,01,06,36,16.10
2015,07,01,06,37,16.10
2015,07,01,06,38,16.10
2015,07,01,06,39,16.20
2015,07,01,06,40,16.20
2015,07,01,06,41,16.20
2015,07,01,06,42,16.20
2015,07,01,06,43,16.20
2015,07,01,06,44,16.20
2015,07,01,06,45,16.20
2015,07,01,06,46,16.30
2015,07,01,06,47,16.30
2015,07,01,06,48,16.30
2015,07,01,06,49,16.40
2015,07,01,06,50,16.40
2015,07,01,06,51,16.40
2015,07,01,06,52,16.40
2015,07,01,06,53,16.40
2015,07,01,06,54,16.50
2015,07,01,06,55,16.50
2015,07,01,06,56,16.60
2015,07,01,06,57,16.60
2015,07,01,06,58,16.60
2015,07,01,06,59,16.70
2015,07,01,07,00,16.70
2015,07,01,07,01,16.80
2015,07,01,07,02,16.80
2015,07,01,07,03,16.80
2015,07,01,07,04,16.90
2015,07,01,07,05,16.90
2015,07,01,07,06,16.90
2015,07,01,07,07,16.90
2015,07,01,07,08,17.00
2015,07,01,07,09,17.00
2015,07,01,07,10,17.00
2015,07,01,07,11,17.10
2015,07,01,07,12,17.10
2015,07,01,07,13,17.20
2015,07,01,07,14,17.20
2015,07,01,07,15,17.20
2015,07,01,07,16,17.30
2015,07,01,07,17,17.30
2015,07,01,07,18,17.30
2015,07,01,07,19,17.30
2015,07,01,07,20,17.30
2015,07,01,07,21,17.40
2015,07,01,07,22,17.40
2015,07,01,07,23,17.40
2015,07,01,07,24,17.50
2015,07,01,07,25,17.50
2015,07,01,07,26,17.60
2015,07,01,07,27,17.60
2015,07,01,07,28,17.60
2015,07,01,07,29,17.60
2015,07,01,07,30,17.60
2015,07,01,07,31,17.70
2015,07,01,07,32,17.70
2015,07,01,07,33,17.70
2015,07,01,07,34,17.70
2015,07,01,07,35,17.70
2015,07,01,07,36,17.70
2015,07,01,07,37,17.70
2015,07,01,07,38,17.70
2015,07,01,07,39,17.70
2015,07,01,07,40,17.70
2015,07,01,07,41,17.80
2015,07,01,07,42,17.80
2015,07,01,07,43,17.80
2015,07,01,07,44,17.80
2015,07,01,07,45,17.90
2015,07,01,07,46,17.90
2015,07,01,07,47,18.00
2015,07,01,07,48,18.00
2015,07,01,07,49,18.10
2015,07,01,07,50,18.10
2015,07,01,07,51,18.10
2015,07,01,07,52,18.10
2015,07,01,07,53,18.20
2015,07,01,07,54,18.20
2015,07,01,07,55,18.20
2015,07,01,07,56,18.20
2015,07,01,07,57,18.20
2015,07,01,07,58,18.20
2015,07,01,07,59,18.20
2015,07,01,08,00,18.20
2015,07,01,08,01,18.30
2015,07,01,08,02,18.30
2015,07,01,08,03,18.30
2015,07,01,08,04,18.30
2015,07,01,08,05,18.30
2015,07,01,08,06,18.30
2015,07,01,08,07,18.30
2015,07,01,08,08,18.30
2015,07,01,08,09,18.30
2015,07,01,08,10,18.40
2015,07,01,08,11,18.40
2015,07,01,08,12,18.50
2015,07,01,08,13,18.50
2015,07,01,08,14,18.60
2015,07,01,08,15,18.70
2015,07,01,08,16,18.70
2015,07,01,08,17,18.70
2015,07,01,08,18,18.70
2015,07,01,08,19,18.70
2015,07,01,08,20,18.70
2015,07,01,08,21,18.70
2015,07,01,08,22,18.70
2015,07,01,08,23,18.60
2015,07,01,08,24,18.60
2015,07,01,08,25,18.70
2015,07,01,08,26,18.70
2015,07,01,08,27,18.70
2015,07,01,08,28,18.70
2015,07,01,08,29,18.70
2015,07,01,08,30,18.70
2015,07,01,08,31,18.70
2015,07,01,08,32,18.70
2015,07,01,08,33,18.70
2015,07,01,08,34,18.70
2015,07,01,08,35,18.80
2015,07,01,08,36,18.90
2015,07,01,08,37,18.80
2015,07,01,08,38,18.80
2015,07,01,08,39,18.90
2015,07,01,08,40,18.90
2015,07,01,08,41,19.00
2015,07,01,08,42,19.00
2015,07,01,08,43,19.10
2015,07,01,08,44,19.10
2015,07,01,08,45,19.10
2015,07,01,08,46,19.20
2015,07,01,08,47,19.20
2015,07,01,08,48,19.20
2015,07,01,08,49,19.30
2015,07,01,08,50,19.30
2015,07,01,08,51,19.30
2015,07,01,08,52,19.30
2015,07,01,08,53,19.40
2015,07,01,08,54,19.40
2015,07,01,08,55,19.50
2015,07,01,08,56,19.50
2015,07,01,08,57,19.60
2015,07,01,08,58,19.60
2015,07,01,08,59,19.70
2015,07,01,09,00,19.70
2015,07,01,09,01,19.70
2015,07,01,09,02,19.80
2015,07,01,09,03,19.80
2015,07,01,09,04,19.80
2015,07,01,09,05,19.80
2015,07,01,09,06,19.80
2015,07,01,09,07,19.80
2015,07,01,09,08,19.90
2015,07,01,09,09,20.00
2015,07,01,09,10,20.00
2015,07,01,09,11,20.10
2015,07,01,09,12,20.20
2015,07,01,09,13,20.30
2015,07,01,09,14,20.30
2015,07,01,09,15,20.40
2015,07,01,09,16,20.40
2015,07,01,09,17,20.30
2015,07,01,09,18,20.30
2015,07,01,09,19,20.30
2015,07,01,09,20,20.30
2015,07,01,09,21,20.20
2015,07,01,09,22,20.20
2015,07,01,09,23,20.10
2015,07,01,09,24,20.00
2015,07,01,09,25,20.00
2015,07,01,09,26,20.00
2015,07,01,09,27,20.00
2015,07,01,09,28,20.00
2015,07,01,09,29,20.00
2015,07,01,09,30,20.00
2015,07,01,09,31,20.00
2015,07,01,09,32,20.00
2015,07,01,09,33,20.00
2015,07,01,09,34,20.00
2015,07,01,09,35,20.10
2015,07,01,09,36,20.10
2015,07,01,09,37,20.10
2015,07,01,09,38,20.00
2015,07,01,09,39,20.00
2015,07,01,09,40,20.00
2015,07,01,09,41,19.90
2015,07,01,09,42,20.00
2015,07,01,09,43,20.00
2015,07,01,09,44,19.90
2015,07,01,09,45,19.90
2015,07,01,09,46,19.90
2015,07,01,09,47,19.90
2015,07,01,09,48,19.90
2015,07,01,09,49,19.90
2015,07,01,09,50,19.90
2015,07,01,09,51,19.90
2015,07,01,09,52,19.90
2015,07,01,09,53,19.90
2015,07,01,09,54,19.90
2015,07,01,09,55,19.90
2015,07,01,09,56,19.90
2015,07,01,09,57,19.90
2015,07,01,09,58,19.80
2015,07,01,09,59,19.80
2015,07,01,10,00,19.80
2015,07,01,10,01,19.80
2015,07,01,10,02,19.70
2015,07,01,10,03,19.70
2015,07,01,10,04,19.70
2015,07,01,10,05,19.70
2015,07,01,10,06,19.70
2015,07,01,10,07,19.70
2015,07,01,10,08,19.80
2015,07,01,10,09,19.90
2015,07,01,10,10,20.00
2015,07,01,10,11,20.00
2015,07,01,10,12,20.10
2015,07,01,10,13,20.20
2015,07,01,10,14,20.20
2015,07,01,10,15,20.30
2015,07,01,10,16,20.30
2015,07,01,10,17,20.40
2015,07,01,10,18,20.40
2015,07,01,10,19,20.50
2015,07,01,10,20,20.60
2015,07,01,10,21,20.60
2015,07,01,10,22,20.60
2015,07,01,10,23,20.60
2015,07,01,10,24,20.60
2015,07,01,10,25,20.50
2015,07,01,10,26,20.50
2015,07,01,10,27,20.50
2015,07,01,10,28,20.60
2015,07,01,10,29,20.60
2015,07,01,10,30,20.70
2015,07,01,10,31,20.70
2015,07,01,10,32,20.70
2015,07,01,10,33,20.60
2015,07,01,10,34,20.40
2015,07,01,10,35,20.50
2015,07,01,10,36,20.40
2015,07,01,10,37,20.40
2015,07,01,10,38,20.50
2015,07,01,10,39,20.50
2015,07,01,10,40,20.50
2015,07,01,10,41,20.40
2015,07,01,10,42,20.40
2015,07,01,10,43,20.40
2015,07,01,10,44,20.50
2015,07,01,10,45,20.60
2015,07,01,10,46,20.60
2015,07,01,10,47,20.60
2015,07,01,10,48,20.60
2015,07,01,10,49,20.60
2015,07,01,10,50,20.60
2015,07,01,10,51,20.50
2015,07,01,10,52,20.40
2015,07,01,10,53,20.30
2015,07,01,10,54,20.30
2015,07,01,10,55,20.30
2015,07,01,10,56,20.30
2015,07,01,10,57,20.30
2015,07,01,10,58,20.40
2015,07,01,10,59,20.60
2015,07,01,11,00,20.70
2015,07,01,11,01,20.80
2015,07,01,11,02,20.90
2015,07,01,11,03,21.00
2015,07,01,11,04,21.20
2015,07,01,11,05,21.30
2015,07,01,11,06,21.40
2015,07,01,11,07,21.50
2015,07,01,11,08,21.60
2015,07,01,11,09,21.70
2015,07,01,11,10,21.70
2015,07,01,11,11,21.70
2015,07,01,11,12,21.70
2015,07,01,11,13,21.70
2015,07,01,11,14,21.70
2015,07,01,11,15,21.70
2015,07,01,11,16,21.60
2015,07,01,11,17,21.60
2015,07,01,11,18,21.60
2015,07,01,11,19,21.60
2015,07,01,11,20,21.70
2015,07,01,11,21,21.70
2015,07,01,11,22,21.70
2015,07,01,11,23,21.80
2015,07,01,11,24,21.80
2015,07,01,11,25,21.90
2015,07,01,11,26,22.00
2015,07,01,11,27,22.10
2015,07,01,11,28,22.20
2015,07,01,11,29,22.30
2015,07,01,11,30,22.30
2015,07,01,11,31,22.30
2015,07,01,11,32,22.30
2015,07,01,11,33,22.40
2015,07,01,11,34,22.50
2015,07,01,11,35,22.60
2015,07,01,11,36,22.70
2015,07,01,11,37,22.70
2015,07,01,11,38,22.70
2015,07,01,11,39,22.60
2015,07,01,11,40,22.60
2015,07,01,11,41,22.60
2015,07,01,11,42,22.70
2015,07,01,11,43,22.70
2015,07,01,11,44,22.70
2015,07,01,11,45,22.80
2015,07,01,11,46,22.80
2015,07,01,11,47,22.80
2015,07,01,11,48,22.80
2015,07,01,11,49,22.80
2015,07,01,11,50,22.80
2015,07,01,11,51,22.70
2015,07,01,11,52,22.80
2015,07,01,11,53,22.90
2015,07,01,11,54,23.00
2015,07,01,11,55,23.00
2015,07,01,11,56,23.00
2015,07,01,11,57,23.10
2015,07,01,11,58,23.20
2015,07,01,11,59,23.20
2015,07,01,12,00,23.20
2015,07,01,12,01,23.20
2015,07,01,12,02,23.20
2015,07,01,12,03,23.20
2015,07,01,12,04,23.10
2015,07,01,12,05,23.10
2015,07,01,12,06,23.10
2015,07,01,12,07,23.10
2015,07,01,12,08,23.10
2015,07,01,12,09,23.10
2015,07,01,12,10,23.10
2015,07,01,12,11,23.00
2015,07,01,12,12,23.00
2015,07,01,12,13,23.00
2015,07,01,12,14,23.00
2015,07,01,12,15,23.00
2015,07,01,12,16,23.10
2015,07,01,12,17,23.10
2015,07,01,12,18,23.10
2015,07,01,12,19,23.10
2015,07,01,12,20,23.10
2015,07,01,12,21,23.10
2015,07,01,12,22,23.10
2015,07,01,12,23,23.10
2015,07,01,12,24,23.20
2015,07,01,12,25,23.20
2015,07,01,12,26,23.20
2015,07,01,12,27,23.20
2015,07,01,12,28,23.20
2015,07,01,12,29,23.10
2015,07,01,12,30,23.00
2015,07,01,12,31,23.00
2015,07,01,12,32,23.00
2015,07,01,12,33,23.10
2015,07,01,12,34,23.20
2015,07,01,12,35,23.20
2015,07,01,12,36,23.30
2015,07,01,12,37,23.40
2015,07,01,12,38,23.40
2015,07,01,12,39,23.50
2015,07,01,12,40,23.60
2015,07,01,12,41,23.60
2015,07,01,12,42,23.50
2015,07,01,12,43,23.50
2015,07,01,12,44,23.60
2015,07,01,12,45,23.60
2015,07,01,12,46,23.60
2015,07,01,12,47,23.70
2015,07,01,12,48,23.70
2015,07,01,12,49,23.80
2015,07,01,12,50,23.80
2015,07,01,12,51,23.90
2015,07,01,12,52,24.00
2015,07,01,12,53,24.00
2015,07,01,12,54,24.10
2015,07,01,12,55,24.20
2015,07,01,12,56,24.30
2015,07,01,12,57,24.30
2015,07,01,12,58,24.40
2015,07,01,12,59,24.40
2015,07,01,13,00,24.40
2015,07,01,13,01,24.40
2015,07,01,13,02,24.40
2015,07,01,13,03,24.30
2015,07,01,13,04,24.30
2015,07,01,13,05,24.30
2015,07,01,13,06,24.30
2015,07,01,13,07,24.30
2015,07,01,13,08,24.30
2015,07,01,13,09,24.40
2015,07,01,13,10,24.30
2015,07,01,13,11,24.30
2015,07,01,13,12,24.30
2015,07,01,13,13,24.30
2015,07,01,13,14,24.20
2015,07,01,13,15,24.20
2015,07,01,13,16,24.20
2015,07,01,13,17,24.20
2015,07,01,13,18,24.10
2015,07,01,13,19,24.20
2015,07,01,13,20,24.20
2015,07,01,13,21,24.30
2015,07,01,13,22,24.40
2015,07,01,13,23,24.40
2015,07,01,13,24,24.40
2015,07,01,13,25,24.30
2015,07,01,13,26,24.30
2015,07,01,13,27,24.30
2015,07,01,13,28,24.30
2015,07,01,13,29,24.30
2015,07,01,13,30,24.40
2015,07,01,13,31,24.50
2015,07,01,13,32,24.60
2015,07,01,13,33,24.60
2015,07,01,13,34,24.60
2015,07,01,13,35,24.60
2015,07,01,13,36,24.60
2015,07,01,13,37,24.50
2015,07,01,13,38,24.50
2015,07,01,13,39,24.50
2015,07,01,13,40,24.40
2015,07,01,13,41,24.30
2015,07,01,13,42,24.40
2015,07,01,13,43,24.40
2015,07,01,13,44,24.40
2015,07,01,13,45,24.40
2015,07,01,13,46,24.40
2015,07,01,13,47,24.40
2015,07,01,13,48,24.40
2015,07,01,13,49,24.40
2015,07,01,13,50,24.50
2015,07,01,13,51,24.50
2015,07,01,13,52,24.60
2015,07,01,13,53,24.70
2015,07,01,13,54,24.70
2015,07,01,13,55,24.80
2015,07,01,13,56,24.90
2015,07,01,13,57,25.00
2015,07,01,13,58,25.00
2015,07,01,13,59,24.90
2015,07,01,14,00,24.90
2015,07,01,14,01,24.90
2015,07,01,14,02,24.90
2015,07,01,14,03,25.00
2015,07,01,14,04,25.00
2015,07,01,14,05,25.10
2015,07,01,14,06,25.20
2015,07,01,14,07,25.20
2015,07,01,14,08,25.20
2015,07,01,14,09,25.20
2015,07,01,14,10,25.20
2015,07,01,14,11,25.20
2015,07,01,14,12,25.20
2015,07,01,14,13,25.20
2015,07,01,14,14,25.20
2015,07,01,14,15,25.30
2015,07,01,14,16,25.40
2015,07,01,14,17,25.40
2015,07,01,14,18,25.50
2015,07,01,14,19,25.60
2015,07,01,14,20,25.60
2015,07,01,14,21,25.50
2015,07,01,14,22,25.60
2015,07,01,14,23,25.70
2015,07,01,14,24,25.70
2015,07,01,14,25,25.70
2015,07,01,14,26,25.80
2015,07,01,14,27,25.70
2015,07,01,14,28,25.70
2015,07,01,14,29,25.70
2015,07,01,14,30,25.60
2015,07,01,14,31,25.50
2015,07,01,14,32,25.40
2015,07,01,14,33,25.40
2015,07,01,14,34,25.30
2015,07,01,14,35,25.30
2015,07,01,14,36,25.30
2015,07,01,14,37,25.30
2015,07,01,14,38,25.20
2015,07,01,14,39,25.20
2015,07,01,14,40,25.30
2015,07,01,14,41,25.30
2015,07,01,14,42,25.30
2015,07,01,14,43,25.40
2015,07,01,14,44,25.40
2015,07,01,14,45,25.40
2015,07,01,14,46,25.40
2015,07,01,14,47,25.40
2015,07,01,14,48,25.40
2015,07,01,14,49,25.40
2015,07,01,14,50,25.50
2015,07,01,14,51,25.60
2015,07,01,14,52,25.60
2015,07,01,14,53,25.60
2015,07,01,14,54,25.70
2015,07,01,14,55,25.80
2015,07,01,14,56,25.80
2015,07,01,14,57,25.80
2015,07,01,14,58,25.90
2015,07,01,14,59,25.90
2015,07,01,15,00,25.90
2015,07,01,15,01,26.00
2015,07,01,15,02,26.10
2015,07,01,15,03,26.10
2015,07,01,15,04,26.10
2015,07,01,15,05,26.20
2015,07,01,15,06,26.20
2015,07,01,15,07,26.30
2015,07,01,15,08,26.30
2015,07,01,15,09,26.30
2015,07,01,15,10,26.40
2015,07,01,15,11,26.40
2015,07,01,15,12,26.50
2015,07,01,15,13,26.50
2015,07,01,15,14,26.40
2015,07,01,15,15,26.40
2015,07,01,15,16,26.50
2015,07,01,15,17,26.50
2015,07,01,15,18,26.60
2015,07,01,15,19,26.70
2015,07,01,15,20,26.80
2015,07,01,15,21,26.80
2015,07,01,15,22,26.90
2015,07,01,15,23,26.90
2015,07,01,15,24,26.90
2015,07,01,15,25,27.00
2015,07,01,15,26,27.00
2015,07,01,15,27,27.00
2015,07,01,15,28,26.90
2015,07,01,15,29,26.80
2015,07,01,15,30,26.80
2015,07,01,15,31,26.80
2015,07,01,15,32,26.90
2015,07,01,15,33,26.90
2015,07,01,15,34,26.90
2015,07,01,15,35,27.00
2015,07,01,15,36,27.10
2015,07,01,15,37,27.20
2015,07,01,15,38,27.30
2015,07,01,15,39,27.30
2015,07,01,15,40,27.40
2015,07,01,15,41,27.40
2015,07,01,15,42,27.50
2015,07,01,15,43,27.50
2015,07,01,15,44,27.60
2015,07,01,15,45,27.60
2015,07,01,15,46,27.70
2015,07,01,15,47,27.80
2015,07,01,15,48,27.80
2015,07,01,15,49,27.80
2015,07,01,15,50,27.80
2015,07,01,15,51,27.80
2015,07,01,15,52,27.80
2015,07,01,15,53,27.80
2015,07,01,15,54,27.80
2015,07,01,15,55,27.80
2015,07,01,15,56,27.80
2015,07,01,15,57,27.80
2015,07,01,15,58,27.80
2015,07,01,15,59,27.80
2015,07,01,16,00,27.80
2015,07,01,16,01,27.80
2015,07,01,16,02,27.80
2015,07,01,16,03,27.80
2015,07,01,16,04,27.80
2015,07,01,16,05,27.70
2015,07,01,16,06,27.70
2015,07,01,16,07,27.70
2015,07,01,16,08,27.80
2015,07,01,16,09,27.80
2015,07,01,16,10,27.80
2015,07,01,16,11,27.80
2015,07,01,16,12,27.80
2015,07,01,16,13,27.80
2015,07,01,16,14,27.70
2015,07,01,16,15,27.70
2015,07,01,16,16,27.70
2015,07,01,16,17,27.80
2015,07,01,16,18,27.80
2015,07,01,16,19,27.90
2015,07,01,16,20,27.90
2015,07,01,16,21,27.90
2015,07,01,16,22,27.80
2015,07,01,16,23,27.80
2015,07,01,16,24,27.90
2015,07,01,16,25,28.00
2015,07,01,16,26,28.10
2015,07,01,16,27,28.10
2015,07,01,16,28,28.10
2015,07,01,16,29,28.20
2015,07,01,16,30,28.20
2015,07,01,16,31,28.30
2015,07,01,16,32,28.30
2015,07,01,16,33,28.30
2015,07,01,16,34,28.30
2015,07,01,16,35,28.30
2015,07,01,16,36,28.20
2015,07,01,16,37,28.20
2015,07,01,16,38,28.20
2015,07,01,16,39,28.20
2015,07,01,16,40,28.30
2015,07,01,16,41,28.30
2015,07,01,16,42,28.30
2015,07,01,16,43,28.40
2015,07,01,16,44,28.50
2015,07,01,16,45,28.60
2015,07,01,16,46,28.70
2015,07,01,16,47,28.80
2015,07,01,16,48,28.90
2015,07,01,16,49,28.90
2015,07,01,16,50,28.90
2015,07,01,16,51,28.90
2015,07,01,16,52,28.90
2015,07,01,16,53,28.90
2015,07,01,16,54,28.90
2015,07,01,16,55,28.90
2015,07,01,16,56,28.90
2015,07,01,16,57,28.90
2015,07,01,16,58,28.90
2015,07,01,16,59,28.90
2015,07,01,17,00,28.80
2015,07,01,17,01,28.80
2015,07,01,17,02,28.80
2015,07,01,17,03,28.80
2015,07,01,17,04,28.80
2015,07,01,17,05,28.90
2015,07,01,17,06,28.90
2015,07,01,17,07,28.80
2015,07,01,17,08,28.80
2015,07,01,17,09,28.80
2015,07,01,17,10,28.70
2015,07,01,17,11,28.80
2015,07,01,17,12,28.80
2015,07,01,17,13,28.80
2015,07,01,17,14,28.90
2015,07,01,17,15,29.00
2015,07,01,17,16,29.10
2015,07,01,17,17,29.20
2015,07,01,17,18,29.20
2015,07,01,17,19,29.30